[[{"header":{"parameterUnit":"m.s-1","parameterCategory":2,"la1":30.2991,"la2":30.254,"lo1":-89.0895,"lo2":-89.0444,"dy":0.0017,"dx":0.0017,"nx":28,"ny":28,"refTime":"2024-08-14T03:00:00:Z","depth":"0","parameterNumber":2,"parameterNumberName":"U-component_of_CURRENTS"},"data":[0,0,0,0,0,0,0,0,0,0,0,0,0,0,0,0,0,0,0,0,0,0,0,0,0,0,0,0,0,0,0,0,0,0,0,0,0,0,0,0,0,0,0,0,0,0,0,0,0,0,0,0,0,0,0,0,0,0,0.2974,0.2974,0,0.302,0.3021,0.3021,0.2918,0.2915,0.2912,0.2909,0.2895,0.2897,0.29,0,0,0,0,0,0,0,0,0,0,0,0,0,0.2892,0.2893,0.2974,0.2974,0.2975,0.302,0.3021,0.3021,0.2919,0.2915,0.2911,0.2908,0.2894,0.2897,0.29,0,0,0,0,0,0,0,0,0,0,0,0,0,0.293,0.2894,0.2973,0.2931,0.2927,0.302,0.3021,0.3021,0.292,0.2915,0.291,0.2906,0.2893,0.2896,0.29,0.3019,0,0,0.2912,0.2914,0,0,0,0,0,0,0,0,0.2928,0.2933,0.2936,0.2934,0.293,0.296,0.2987,0.3018,0.2921,0.2921,0.2909,0.2903,0.2916,0.2917,0.2935,0.3019,0.3018,0.2912,0.2915,0.2916,0.2918,0,0,0,0,0,0,0,0.2926,0.2931,0.299,0.2937,0.2934,0.2942,0.2941,0.2993,0.2942,0.2921,0.2914,0.2923,0.2912,0.2932,0.2934,0.3018,0.2912,0.2916,0.2918,0.292,0.3215,0.322,0,0,0,0,0,0,0.2924,0.2929,0.2989,0.2992,0.2919,0.2947,0.2946,0.2954,0.2943,0.2937,0.2927,0.2918,0.2928,0.293,0.2933,0.3087,0.2916,0.292,0.2922,0.3209,0.3216,0.3222,0,0,0,0,0,0,0.2922,0.2929,0.2987,0.2962,0.297,0.2953,0.2963,0.2957,0.298,0.2948,0.294,0.2955,0.2924,0.2927,0.299,0.3084,0.2922,0.2925,0.3203,0.3211,0.3219,0.3387,0,0,0,0,0,0,0.2919,0.2928,0.2958,0.2963,0.2972,0.3075,0.2968,0.2962,0.2993,0.2982,0.2971,0.2964,0.292,0.2985,0.2994,0.3087,0.2928,0.3196,0.3207,0.3217,0.3374,0.34,0.3422,0,0,0,0,0,0.2916,0.2977,0.2959,0.2967,0.3004,0.308,0.3088,0.3057,0.3,0.3051,0.3021,0.2964,0.3057,0.2993,0.3002,0.3098,0.3191,0.3204,0.3216,0.3364,0.3395,0.3421,0,0,0,0,0,0,0.2947,0.2973,0.2952,0.3012,0.3057,0.3063,0.3116,0.3089,0.3111,0.3094,0.3032,0.3028,0.3135,0.3104,0.3034,0.3219,0.3119,0.3134,0.3229,0.3258,0.3281,0.3228,0.2931,0,0,0,0,0,0.2974,0.3028,0.3048,0.3103,0.3133,0.3132,0.3162,0.3147,0.3157,0.316,0.3148,0.3152,0.3204,0.3211,0.326,0.3352,0.333,0.3426,0.3449,0.3469,0.3438,0.3535,0.3563,0.3263,0.3263,0.3263,0,0,0.2994,0.3024,0.3048,0.3117,0.3144,0.3207,0.3139,0.3211,0.3246,0.3163,0.3226,0.3257,0.3257,0.3362,0.3405,0.3333,0.355,0.3485,0.3501,0.3458,0.355,0.3579,0.3604,0.3271,0.327,0.3269,0,0,0.3079,0.3102,0.3176,0.3227,0.3294,0.33,0.3328,0.3364,0.3367,0.3447,0.3406,0.3476,0.3538,0.3553,0.3566,0.3757,0.3697,0.3794,0.384,0.3938,0.3961,0.3982,0.4003,0.4023,0.3776,0.3776,0.3776,0,0.3098,0.318,0.3216,0.3302,0.3334,0.3342,0.3409,0.3449,0.3494,0.3501,0.3486,0.3599,0.3625,0.3713,0.3778,0.3809,0.3819,0.3724,0.3964,0.3984,0.4002,0.4018,0.4039,0.3786,0.3785,0.3784,0.3783,0,0.3232,0.3295,0.3356,0.3443,0.3497,0.3573,0.3608,0.3663,0.3665,0.3672,0.378,0.3826,0.3856,0.3929,0.3905,0.4057,0.401,0.4006,0.3877,0.4041,0.4049,0.4068,0.3799,0.3796,0.3793,0.3791,0,0,0.3246,0.3409,0.3423,0.3461,0.3566,0.3609,0.3699,0.3756,0.3771,0.3862,0.389,0.4036,0.4027,0.4042,0.4061,0.4146,0.4319,0.4124,0.4125,0.4116,0.4486,0.4164,0.4152,0.4361,0.4365,0.4368,0.4442,0,0.3321,0.3483,0.3537,0.3644,0.3714,0.374,0.3799,0.3851,0.3887,0.3934,0.3999,0.4059,0.4078,0.4102,0.4204,0.4286,0.4373,0.4294,0.4349,0.4348,0.4021,0.4165,0.3906,0.3923,0.4459,0.4462,0.4464,0,0.341,0.3502,0.3626,0.3704,0.3729,0.3779,0.3825,0.3885,0.3954,0.3981,0.4046,0.4074,0.4196,0.4206,0.4398,0.4344,0.4426,0.4492,0.4497,0.4131,0.406,0.3848,0.3935,0.3825,0.4491,0.4489,0.4487,0,0.3389,0.3538,0.3622,0.3663,0.3771,0.3791,0.3827,0.3888,0.3918,0.3999,0.4023,0.4143,0.4193,0.4344,0.4431,0.4447,0.4615,0.4654,0.4438,0.4415,0.416,0.4104,0.4107,0.4816,0.4816,0.4816,0.4816,0,0.3441,0.3495,0.3609,0.3659,0.3708,0.3771,0.3807,0.3857,0.3916,0.3948,0.4029,0.4069,0.4242,0.4324,0.4443,0.4434,0.4622,0.4438,0.4419,0.4209,0.4159,0.4016,0.4009,0.4819,0.4818,0.4818,0.4817,0,0.3428,0.3509,0.3596,0.3696,0.3709,0.3742,0.3794,0.3824,0.3874,0.3922,0.3946,0.4041,0.4112,0.4214,0.4417,0.4384,0.43,0.4421,0.4095,0.4032,0.3646,0.3657,0.3485,0.341,0.4193,0.4186,0.418,0,0.3462,0.3511,0.3607,0.3639,0.3683,0.3728,0.3752,0.3805,0.383,0.3895,0.3913,0.396,0.3976,0.4041,0.3997,0.4032,0.4046,0.3777,0.3752,0.3556,0.3565,0.3512,0.3464,0.3528,0.3517,0.3508,0.35,0,0.3523,0.3536,0.3613,0.3661,0.3691,0.3714,0.3744,0.3745,0.3793,0.3808,0.3807,0.3815,0.3759,0.3596,0.3522,0.3542,0.3511,0.3579,0.3533,0.3129,0.2928,0.2866,0.3516,0.3419,0.3427,0.3433,0.3438,0.3441,0.356,0.3593,0.3664,0.368,0.3713,0.3684,0.3633,0.3651,0.3638,0.3555,0.3656,0.3518,0.3303,0.3125,0.3096,0.2748,0.294,0.2656,0.272,0.2709,0.2505,0.2878,0.2641,0.2645,0.2648,0.2651,0.2653,0,0.3591,0.3614,0.3668,0.3669,0.3643,0.3652,0.3606,0.3491,0.3395,0.3336,0.327,0.2922,0.2668,0.2485,0.2112,0.1953,0.1979,0.1887,0.1864,0.1897,0.2364,0.2195,0.1659,0.1659,0.1659,0.1659,0.1659,0.166,0.362,0.3645,0.3629,0.3578,0.3549,0.3404,0.3321,0.3165,0.3051,0.2725,0.2452,0.235,0.2116,0.1761,0.1461,0.1424,0.1425,0.1224,0.1393,0.1805,0.1887,0.1964,0.1806,0.1196,0.1196,0.0818,0.0815,0.0813]},{"header":{"parameterUnit":"m.s-1","parameterCategory":2,"la1":30.2991,"la2":30.254,"lo1":-89.0895,"lo2":-89.0444,"dy":0.0017,"dx":0.0017,"nx":28,"ny":28,"refTime":"2024-08-14T03:00:00:Z","depth":"0","parameterNumber":3,"parameterNumberName":"V-component_of_CURRENTS"},"data":[0,0,0,0,0,0,0,0,0,0,0,0,0,0,0,0,0,0,0,0,0,0,0,0,0,0,0,0,0,0,0,0,0,0,0,0,0,0,0,0,0,0,0,0,0,0,0,0,0,0,0,0,0,0,0,0,0,0,0.0115,0.0115,0,0.0103,0.0103,0.0104,0.0119,0.0119,0.0119,0.012,0.0197,0.0198,0.02,0,0,0,0,0,0,0,0,0,0,0,0,0,0.014,0.014,0.0115,0.0115,0.0114,0.0103,0.0103,0.0104,0.0119,0.0119,0.0119,0.012,0.0196,0.0198,0.02,0,0,0,0,0,0,0,0,0,0,0,0,0,0.0131,0.014,0.0115,0.0119,0.0119,0.0103,0.0103,0.0104,0.0119,0.0119,0.012,0.012,0.0195,0.0198,0.0201,0.0207,0,0,0.0209,0.021,0,0,0,0,0,0,0,0,0.0132,0.0131,0.0118,0.0118,0.0118,0.0111,0.014,0.0142,0.0118,0.0121,0.012,0.012,0.0174,0.0179,0.0178,0.021,0.0214,0.0209,0.021,0.0212,0.0212,0,0,0,0,0,0,0,0.0132,0.0131,0.0113,0.0118,0.0118,0.0117,0.0117,0.0141,0.0149,0.0121,0.0121,0.0116,0.0175,0.0175,0.018,0.0215,0.0209,0.0211,0.0213,0.0214,0.0326,0.0327,0,0,0,0,0,0,0.0129,0.0132,0.0113,0.0112,0.0124,0.0116,0.0116,0.0115,0.0146,0.015,0.0116,0.0117,0.017,0.0177,0.0183,0.0244,0.0211,0.0214,0.0215,0.0324,0.0326,0.0328,0,0,0,0,0,0,0.013,0.0128,0.0113,0.012,0.0118,0.0115,0.0114,0.0114,0.0118,0.0141,0.0147,0.0119,0.0171,0.0179,0.0205,0.0245,0.0215,0.0217,0.0323,0.0325,0.0327,0.0333,0,0,0,0,0,0,0.0131,0.0128,0.0129,0.0119,0.0117,0.0107,0.0113,0.0114,0.0112,0.0114,0.0146,0.0153,0.0172,0.0201,0.0208,0.0248,0.022,0.0321,0.0324,0.0326,0.0331,0.0335,0.0338,0,0,0,0,0,0.0132,0.0128,0.0129,0.0127,0.0118,0.0106,0.0105,0.0107,0.0112,0.0113,0.0134,0.0152,0.0224,0.0203,0.0211,0.0253,0.032,0.0323,0.0326,0.0329,0.0334,0.0338,0,0,0,0,0,0,0.014,0.0129,0.013,0.0124,0.0117,0.0108,0.0106,0.0107,0.0122,0.0126,0.0153,0.0162,0.0202,0.0224,0.02,0.0296,0.0282,0.0287,0.0282,0.0287,0.0291,0.0351,0.0222,0,0,0,0,0,0.0141,0.0137,0.0126,0.0122,0.0118,0.0113,0.011,0.0108,0.0115,0.0122,0.0143,0.018,0.022,0.0248,0.0273,0.0318,0.0379,0.0357,0.0361,0.0364,0.042,0.057,0.0594,0.0338,0.0338,0.0338,0,0,0.0143,0.0136,0.0135,0.0124,0.0119,0.0124,0.0113,0.0105,0.0126,0.013,0.0165,0.0181,0.023,0.0278,0.0302,0.0304,0.0447,0.0368,0.037,0.0426,0.0577,0.0602,0.0625,0.034,0.034,0.0339,0,0,0.0145,0.0139,0.0138,0.0135,0.0124,0.0125,0.0124,0.0117,0.0132,0.0153,0.0175,0.0228,0.0258,0.0326,0.0362,0.0409,0.0451,0.0401,0.0486,0.0629,0.0653,0.0674,0.0692,0.0716,0.0418,0.0418,0.0418,0,0.0149,0.0152,0.0135,0.0137,0.0147,0.013,0.0145,0.0154,0.016,0.0204,0.0168,0.0289,0.0304,0.0434,0.044,0.0426,0.0469,0.0456,0.0637,0.0661,0.0683,0.0697,0.0724,0.0418,0.0418,0.0418,0.0418,0,0.0154,0.0161,0.0159,0.0167,0.0173,0.0176,0.0188,0.0209,0.0219,0.025,0.0348,0.0376,0.0472,0.0469,0.0464,0.0633,0.0591,0.061,0.0628,0.071,0.0717,0.0744,0.0419,0.0419,0.0419,0.0419,0,0,0.0159,0.0164,0.0167,0.0193,0.0194,0.0209,0.0249,0.031,0.0388,0.0398,0.0524,0.0574,0.0607,0.0654,0.0667,0.0783,0.0914,0.0762,0.0769,0.0782,0.1153,0.1001,0.1015,0.0969,0.0976,0.0982,0.106,0,0.0176,0.0199,0.0198,0.0245,0.0266,0.0284,0.0341,0.0398,0.0449,0.056,0.0634,0.0735,0.0673,0.073,0.0836,0.0925,0.1003,0.0887,0.1073,0.1077,0.0939,0.105,0.0964,0.102,0.1087,0.1091,0.1094,0,0.0186,0.0209,0.0251,0.0322,0.0338,0.0369,0.0495,0.0542,0.0681,0.0731,0.085,0.0898,0.106,0.0994,0.1203,0.113,0.1147,0.1188,0.1193,0.1095,0.0983,0.097,0.1067,0.0992,0.1137,0.1133,0.113,0,0.0216,0.0255,0.0302,0.0318,0.0386,0.0438,0.0488,0.0605,0.0697,0.0861,0.0962,0.112,0.1235,0.1331,0.1355,0.1315,0.1561,0.1519,0.1383,0.1366,0.1358,0.133,0.1427,0.1679,0.1679,0.1679,0.1679,0,0.0242,0.0283,0.0325,0.0355,0.046,0.0484,0.0624,0.0695,0.0845,0.0999,0.1063,0.1223,0.1342,0.1459,0.1452,0.1492,0.1637,0.1439,0.1424,0.1338,0.1309,0.1293,0.1263,0.1681,0.1681,0.168,0.168,0,0.0275,0.0284,0.0362,0.0442,0.0472,0.0556,0.0691,0.0809,0.0917,0.1127,0.1191,0.1371,0.1512,0.1545,0.1705,0.1617,0.1607,0.1618,0.143,0.1391,0.1159,0.1131,0.1258,0.1244,0.1513,0.1511,0.1508,0,0.0304,0.0339,0.0433,0.0498,0.0538,0.0649,0.0742,0.0845,0.097,0.1219,0.134,0.1514,0.1642,0.174,0.1648,0.1594,0.1551,0.1428,0.1353,0.1175,0.1138,0.1121,0.1101,0.1303,0.13,0.1297,0.1294,0,0.0404,0.0428,0.05,0.0601,0.0698,0.0806,0.0931,0.1029,0.1181,0.1344,0.1565,0.1681,0.1723,0.1662,0.1521,0.1462,0.135,0.1358,0.1312,0.1109,0.0981,0.0945,0.1123,0.1268,0.127,0.1272,0.1274,0.1275,0.0513,0.0577,0.0657,0.075,0.085,0.0959,0.1049,0.1181,0.1361,0.1575,0.1676,0.1809,0.1658,0.1473,0.137,0.1069,0.1163,0.0975,0.0985,0.1006,0.0932,0.0965,0.1003,0.1004,0.1005,0.1005,0.1006,0,0.0668,0.0712,0.0806,0.0917,0.1014,0.1032,0.1183,0.1262,0.1445,0.1614,0.1758,0.168,0.1491,0.1279,0.0892,0.0729,0.0723,0.0669,0.0684,0.0707,0.0864,0.0788,0.0617,0.0617,0.0617,0.0617,0.0617,0.0617,0.0768,0.087,0.0877,0.1039,0.1103,0.121,0.1279,0.1383,0.1487,0.1601,0.161,0.1624,0.141,0.0895,0.0561,0.0506,0.0485,0.0419,0.0474,0.0585,0.0616,0.0645,0.0568,0.0354,0.0354,0.0305,0.0305,0.0304]}],[{"header":{"parameterUnit":"m.s-1","parameterCategory":2,"la1":30.2991,"la2":30.254,"lo1":-89.0895,"lo2":-89.0444,"dy":0.0017,"dx":0.0017,"nx":28,"ny":28,"refTime":"2024-08-14T03:00:00:Z","depth":"2","parameterNumber":2,"parameterNumberName":"U-component_of_CURRENTS"},"data":[0,0,0,0,0,0,0,0,0,0,0,0,0,0,0,0,0,0,0,0,0,0,0,0,0,0,0,0,0,0,0,0,0,0,0,0,0,0,0,0,0,0,0,0,0,0,0,0,0,0,0,0,0,0,0,0,0,0,0.1723,0.1723,0,0.1752,0.1751,0.1751,0.1746,0.1746,0.1747,0.1747,0.1837,0.1839,0.1841,0,0,0,0,0,0,0,0,0,0,0,0,0,0.1713,0.1712,0.1722,0.1724,0.1725,0.1752,0.1751,0.1751,0.1746,0.1746,0.1747,0.1747,0.1836,0.1838,0.1841,0,0,0,0,0,0,0,0,0,0,0,0,0,0.1719,0.1712,0.1722,0.1732,0.1734,0.1752,0.1751,0.1751,0.1746,0.1746,0.1747,0.1747,0.1835,0.1838,0.1841,0.1853,0,0,0.1851,0.1852,0,0,0,0,0,0,0,0,0.1718,0.1718,0.1729,0.1731,0.1733,0.1753,0.1781,0.1791,0.1746,0.1732,0.1747,0.1747,0.182,0.1824,0.1816,0.1857,0.1861,0.1851,0.1853,0.1855,0.1856,0,0,0,0,0,0,0,0.1718,0.1717,0.1725,0.1731,0.1733,0.1753,0.1752,0.1782,0.1768,0.1734,0.1735,0.1752,0.182,0.1812,0.1818,0.1862,0.1851,0.1854,0.1856,0.1857,0.2067,0.207,0,0,0,0,0,0,0.1728,0.1716,0.1725,0.1727,0.1736,0.1753,0.1752,0.1739,0.1766,0.1773,0.1752,0.1752,0.1807,0.1814,0.1821,0.192,0.1855,0.1858,0.1859,0.2063,0.2068,0.2072,0,0,0,0,0,0,0.1727,0.1727,0.1724,0.1731,0.1733,0.1753,0.1738,0.174,0.1749,0.1781,0.1787,0.1762,0.1807,0.1817,0.1874,0.192,0.1859,0.1862,0.2059,0.2065,0.207,0.2064,0,0,0,0,0,0,0.1726,0.1726,0.1695,0.1731,0.1733,0.1727,0.1739,0.1741,0.1762,0.1762,0.1792,0.1799,0.1808,0.1869,0.1877,0.1924,0.1864,0.2054,0.2061,0.2068,0.2059,0.2068,0.2076,0,0,0,0,0,0.1725,0.172,0.1692,0.1693,0.1697,0.1727,0.1728,0.174,0.1763,0.1752,0.18,0.1799,0.192,0.1873,0.1882,0.1931,0.2051,0.2059,0.2067,0.2056,0.2067,0.2076,0,0,0,0,0,0,0.1731,0.1721,0.1691,0.1687,0.1691,0.173,0.1744,0.1751,0.1776,0.1803,0.1822,0.1832,0.1914,0.193,0.1878,0.2022,0.1996,0.2006,0.1985,0.1995,0.2003,0.2104,0.1867,0,0,0,0,0,0.1706,0.1697,0.1687,0.1696,0.1693,0.1713,0.1725,0.1741,0.1784,0.1794,0.182,0.1882,0.1952,0.1975,0.2031,0.2083,0.214,0.2135,0.2143,0.2149,0.2245,0.236,0.2387,0.2099,0.2098,0.2098,0,0,0.1722,0.172,0.1714,0.1695,0.171,0.1736,0.1721,0.1766,0.1815,0.1806,0.1881,0.1912,0.1979,0.2051,0.209,0.2065,0.2244,0.216,0.2164,0.2259,0.2371,0.2399,0.2424,0.2104,0.2103,0.2102,0,0,0.178,0.1737,0.1737,0.1738,0.1756,0.1775,0.179,0.1818,0.1841,0.1894,0.1939,0.2016,0.2061,0.2145,0.2191,0.2291,0.2294,0.2286,0.2391,0.2497,0.2522,0.2545,0.2564,0.2589,0.2275,0.2275,0.2275,0,0.1782,0.1787,0.175,0.1765,0.1793,0.1801,0.1837,0.1869,0.1921,0.1963,0.1928,0.2097,0.2135,0.229,0.2336,0.2315,0.2341,0.2323,0.2506,0.2531,0.2555,0.2569,0.2597,0.2276,0.2276,0.2276,0.2276,0,0.1824,0.1837,0.1865,0.1872,0.1887,0.1939,0.1968,0.2003,0.2031,0.2065,0.2188,0.2239,0.2347,0.2359,0.2384,0.2577,0.2524,0.2501,0.2468,0.2583,0.259,0.2619,0.2277,0.2277,0.2277,0.2276,0,0,0.1814,0.1869,0.1878,0.1905,0.195,0.198,0.2072,0.2141,0.2225,0.2258,0.2368,0.2502,0.2525,0.2593,0.2617,0.2726,0.2872,0.2695,0.27,0.2693,0.3048,0.2741,0.2741,0.2856,0.2863,0.2869,0.295,0,0.1853,0.1919,0.1932,0.2029,0.2069,0.2103,0.2183,0.2258,0.2315,0.2413,0.2504,0.2623,0.261,0.2668,0.2778,0.288,0.2966,0.2851,0.2964,0.2968,0.2665,0.2773,0.2539,0.2572,0.2978,0.2983,0.2987,0,0.188,0.1922,0.201,0.2114,0.2128,0.2189,0.2315,0.2387,0.2528,0.257,0.2697,0.2756,0.2962,0.2911,0.3144,0.3058,0.3099,0.3142,0.3143,0.2913,0.272,0.2548,0.2609,0.3035,0.3031,0.3028,0.3024,0,0.1907,0.1991,0.2073,0.21,0.2198,0.2256,0.232,0.2445,0.2497,0.2705,0.2748,0.2964,0.3049,0.3198,0.3239,0.3234,0.3424,0.3406,0.316,0.3134,0.2999,0.2947,0.3601,0.3601,0.3601,0.3601,0.3601,0,0.1955,0.2029,0.2093,0.2135,0.2225,0.2288,0.24,0.2493,0.2607,0.268,0.284,0.2911,0.3137,0.3215,0.3294,0.3265,0.3451,0.3241,0.3172,0.2972,0.292,0.3396,0.3371,0.3604,0.3603,0.3603,0.3602,0,0.1994,0.2051,0.2136,0.2219,0.2251,0.2315,0.2396,0.2474,0.2582,0.2685,0.2753,0.291,0.3013,0.311,0.3313,0.3263,0.3321,0.3248,0.2936,0.2828,0.2961,0.2936,0.3084,0.3075,0.3067,0.306,0.3055,0,0.2015,0.2064,0.2159,0.2207,0.2251,0.2331,0.2392,0.2477,0.2531,0.2645,0.2687,0.2798,0.2823,0.2904,0.2885,0.2906,0.3073,0.2685,0.2671,0.301,0.2929,0.2915,0.2901,0.2475,0.2466,0.2458,0.2451,0,0.2026,0.2073,0.2133,0.2216,0.2286,0.233,0.2404,0.2409,0.2499,0.2534,0.2576,0.2603,0.2592,0.2488,0.2417,0.2414,0.2673,0.2511,0.3034,0.2581,0.2426,0.2347,0.2357,0.238,0.2387,0.2392,0.2396,0.2399,0.2023,0.2064,0.2143,0.2205,0.2283,0.231,0.2283,0.2326,0.232,0.2293,0.238,0.23,0.2289,0.2048,0.1962,0.1904,0.2119,0.2116,0.2148,0.2188,0.2041,0.1875,0.1696,0.1699,0.1701,0.1704,0.1706,0,0.2017,0.2071,0.2123,0.2178,0.2193,0.2275,0.2267,0.2168,0.2087,0.21,0.2051,0.1788,0.1643,0.1643,0.1424,0.1378,0.1455,0.135,0.1491,0.1559,0.162,0.1454,0.0949,0.0947,0.0945,0.0943,0,0,0.203,0.2084,0.2086,0.2057,0.2099,0.2032,0.1997,0.188,0.1802,0.1643,0.1559,0.159,0.16,0.128,0.1196,0.1057,0.1318,0.0997,0.1601,0.1837,0.1897,0.2042,0.1855,0,0,0,0,0]},{"header":{"parameterUnit":"m.s-1","parameterCategory":2,"la1":30.2991,"la2":30.254,"lo1":-89.0895,"lo2":-89.0444,"dy":0.0017,"dx":0.0017,"nx":28,"ny":28,"refTime":"2024-08-14T03:00:00:Z","depth":"2","parameterNumber":3,"parameterNumberName":"V-component_of_CURRENTS"},"data":[0,0,0,0,0,0,0,0,0,0,0,0,0,0,0,0,0,0,0,0,0,0,0,0,0,0,0,0,0,0,0,0,0,0,0,0,0,0,0,0,0,0,0,0,0,0,0,0,0,0,0,0,0,0,0,0,0,0,-0.0119,-0.0119,0,-0.0134,-0.0134,-0.0134,-0.0145,-0.0145,-0.0145,-0.0145,-0.0149,-0.0149,-0.0149,0,0,0,0,0,0,0,0,0,0,0,0,0,-0.0091,-0.0091,-0.0119,-0.0119,-0.0119,-0.0134,-0.0134,-0.0134,-0.0145,-0.0145,-0.0145,-0.0145,-0.0149,-0.0149,-0.0149,0,0,0,0,0,0,0,0,0,0,0,0,0,-0.0103,-0.0091,-0.0118,-0.0127,-0.0128,-0.0134,-0.0134,-0.0134,-0.0145,-0.0145,-0.0145,-0.0145,-0.0149,-0.0149,-0.0149,-0.0144,0,0,-0.0149,-0.0149,0,0,0,0,0,0,0,0,-0.0103,-0.0104,-0.0125,-0.0126,-0.0127,-0.0138,-0.0126,-0.0137,-0.0145,-0.0138,-0.0145,-0.0146,-0.0145,-0.0145,-0.0147,-0.0144,-0.0145,-0.0149,-0.0149,-0.0149,-0.0149,0,0,0,0,0,0,0,-0.0102,-0.0104,-0.0124,-0.0125,-0.0127,-0.0127,-0.0129,-0.0128,-0.0139,-0.0138,-0.0139,-0.0142,-0.0145,-0.0147,-0.0147,-0.0145,-0.0149,-0.0149,-0.0149,-0.0149,-0.0138,-0.0137,0,0,0,0,0,0,-0.0102,-0.0103,-0.0123,-0.0124,-0.0116,-0.0127,-0.013,-0.0134,-0.0139,-0.0141,-0.0142,-0.0142,-0.0147,-0.0147,-0.0147,-0.0118,-0.0149,-0.0149,-0.0149,-0.0138,-0.0137,-0.0137,0,0,0,0,0,0,-0.0101,-0.0103,-0.0123,-0.0114,-0.0117,-0.0128,-0.0132,-0.0134,-0.0139,-0.0142,-0.0143,-0.0145,-0.0147,-0.0147,-0.0147,-0.0119,-0.0149,-0.0149,-0.0138,-0.0138,-0.0137,-0.0075,0,0,0,0,0,0,-0.01,-0.0103,-0.0098,-0.0115,-0.0118,-0.0119,-0.0132,-0.0134,-0.0141,-0.0142,-0.0145,-0.0146,-0.0147,-0.0147,-0.0147,-0.012,-0.0149,-0.0138,-0.0138,-0.0137,-0.0078,-0.0073,-0.0069,0,0,0,0,0,-0.0099,-0.01,-0.0098,-0.01,-0.0113,-0.0119,-0.012,-0.0128,-0.014,-0.0135,-0.0144,-0.0146,-0.0144,-0.0147,-0.0147,-0.0119,-0.0139,-0.0138,-0.0137,-0.008,-0.0074,-0.0069,0,0,0,0,0,0,-0.0089,-0.0101,-0.01,-0.0104,-0.0105,-0.0121,-0.012,-0.0129,-0.0133,-0.014,-0.0145,-0.0145,-0.0133,-0.0143,-0.0146,-0.0117,-0.0141,-0.014,-0.0097,-0.0091,-0.0087,-0.0048,-0.0149,0,0,0,0,0,-0.0083,-0.0088,-0.0093,-0.0097,-0.0096,-0.0108,-0.011,-0.0119,-0.0129,-0.0132,-0.0133,-0.0137,-0.013,-0.0125,-0.0126,-0.0111,-0.0093,-0.0094,-0.009,-0.0086,-0.0056,-0.0011,0.0002,-0.0135,-0.0135,-0.0135,0,0,-0.0083,-0.009,-0.0093,-0.0095,-0.0099,-0.008,-0.011,-0.0119,-0.0097,-0.0131,-0.0107,-0.0124,-0.0126,-0.0106,-0.0101,-0.0109,-0.0042,-0.0085,-0.0081,-0.0053,-0.0009,0.0005,0.0018,-0.0135,-0.0135,-0.0135,0,0,-0.0083,-0.0088,-0.0084,-0.0075,-0.0079,-0.0075,-0.0076,-0.0087,-0.0083,-0.0074,-0.0086,-0.0079,-0.0084,-0.0061,-0.0055,-0.0026,-0.0023,-0.0043,0.0021,0.0064,0.0077,0.0088,0.0118,0.0132,-0.0036,-0.0035,-0.0035,0,-0.0077,-0.0067,-0.0082,-0.0065,-0.0045,-0.0067,-0.0038,-0.0036,-0.0043,-0.0023,-0.006,-0.0034,-0.0048,0.0012,0.0013,-0.0008,0.0003,0.0003,0.0074,0.0086,0.0097,0.0124,0.0139,-0.0032,-0.0033,-0.0033,-0.0033,0,-0.006,-0.0044,-0.0042,-0.0014,0.0005,0.0017,0.0031,0.0047,0.004,0.0048,0.0082,0.0063,0.0084,0.0074,0.005,0.0121,0.0099,0.0073,0.0069,0.0115,0.014,0.0154,-0.0028,-0.0029,-0.003,-0.0031,0,0,-0.006,-0.0032,-0.0026,0.0012,0.0037,0.0061,0.0103,0.0152,0.0202,0.018,0.025,0.0238,0.0216,0.0222,0.0195,0.0228,0.0293,0.018,0.018,0.0225,0.038,0.0269,0.0273,0.0274,0.0277,0.0279,0.0364,0,-0.0032,0.0019,0.003,0.0103,0.0138,0.0159,0.0218,0.0256,0.0275,0.0332,0.0321,0.0356,0.0276,0.0283,0.0303,0.031,0.0334,0.0273,0.0316,0.0318,0.0227,0.0287,0.0271,0.0337,0.0378,0.038,0.0382,0,-0.0015,0.0031,0.0097,0.0189,0.0212,0.0252,0.0362,0.0406,0.0472,0.0487,0.051,0.0492,0.0539,0.045,0.0499,0.0459,0.0423,0.0415,0.0417,0.031,0.0233,0.0298,0.0361,0.0405,0.0403,0.0401,0.04,0,0.0002,0.008,0.0145,0.0173,0.0268,0.0314,0.0368,0.0445,0.0524,0.0578,0.064,0.0657,0.0691,0.0666,0.0604,0.0564,0.0653,0.0598,0.0469,0.046,0.0457,0.0441,0.0631,0.0631,0.0631,0.0631,0.0631,0,0.0027,0.0081,0.0156,0.0195,0.0308,0.0349,0.0468,0.0519,0.0628,0.074,0.071,0.0796,0.0746,0.0766,0.0684,0.0624,0.0712,0.0508,0.0486,0.047,0.0456,0.0518,0.0504,0.0634,0.0633,0.0633,0.0632,0,0.0026,0.0063,0.0155,0.0268,0.0305,0.0384,0.0533,0.063,0.071,0.0858,0.0884,0.0945,0.0941,0.0873,0.0851,0.0737,0.0683,0.0624,0.0592,0.0562,0.0444,0.0432,0.0524,0.0521,0.0518,0.0516,0.0514,0,0.0036,0.0074,0.0204,0.0274,0.0322,0.0439,0.053,0.0646,0.0762,0.0946,0.1034,0.1068,0.1071,0.0989,0.0801,0.0653,0.0649,0.0535,0.044,0.047,0.044,0.0431,0.0423,0.0472,0.047,0.0468,0.0467,0,0.0089,0.0119,0.0209,0.0334,0.0433,0.0564,0.0698,0.0809,0.0961,0.1074,0.1216,0.1227,0.1107,0.0936,0.07,0.059,0.0552,0.049,0.0598,0.0461,0.0416,0.0387,0.0382,0.0452,0.0454,0.0455,0.0456,0.0456,0.0143,0.021,0.0315,0.0435,0.0549,0.0688,0.079,0.0931,0.1098,0.1252,0.1281,0.1259,0.1105,0.074,0.0578,0.0392,0.0401,0.034,0.0349,0.0358,0.0297,0.0246,0.024,0.024,0.024,0.0241,0.0241,0,0.0236,0.0301,0.0416,0.0564,0.068,0.0721,0.0917,0.0999,0.115,0.1228,0.1278,0.107,0.0891,0.0715,0.0404,0.0229,0.0243,0.0192,0.0266,0.028,0.0293,0.0231,0.0155,0.0155,0.0154,0.0154,0,0,0.0292,0.0406,0.0452,0.0652,0.0741,0.0875,0.097,0.1062,0.1134,0.1162,0.1126,0.1093,0.0898,0.0663,0.0461,0.0307,0.0327,0.0268,0.0349,0.0473,0.0488,0.0385,0.0304,0,0,0,0,0]}],[{"header":{"parameterUnit":"m.s-1","parameterCategory":2,"la1":30.2991,"la2":30.254,"lo1":-89.0895,"lo2":-89.0444,"dy":0.0017,"dx":0.0017,"nx":28,"ny":28,"refTime":"2024-08-14T03:00:00:Z","depth":"4","parameterNumber":2,"parameterNumberName":"U-component_of_CURRENTS"},"data":[0,0,0,0,0,0,0,0,0,0,0,0,0,0,0,0,0,0,0,0,0,0,0,0,0,0,0,0,0,0,0,0,0,0,0,0,0,0,0,0,0,0,0,0,0,0,0,0,0,0,0,0,0,0,0,0,0,0,0.071,0.071,0,0.0692,0.0692,0.0691,0.0729,0.073,0.0732,0.0733,0.0699,0.0696,0.0694,0,0,0,0,0,0,0,0,0,0,0,0,0,0.0765,0.0764,0.071,0.071,0.071,0.0692,0.0692,0.0691,0.0729,0.0731,0.0732,0.0734,0.0699,0.0697,0.0694,0,0,0,0,0,0,0,0,0,0,0,0,0,0.0741,0.0763,0.071,0.0729,0.073,0.0692,0.0692,0.0691,0.0728,0.0731,0.0733,0.0735,0.07,0.0697,0.0693,0.0627,0,0,0.0683,0.0681,0,0,0,0,0,0,0,0,0.0742,0.0738,0.0726,0.0727,0.0729,0.0718,0.0699,0.067,0.0728,0.0726,0.0733,0.0736,0.0703,0.07,0.0688,0.0626,0.0624,0.0683,0.068,0.0679,0.0678,0,0,0,0,0,0,0,0.0744,0.0739,0.07,0.0726,0.0728,0.0734,0.0733,0.0693,0.07,0.0726,0.073,0.0732,0.0704,0.0691,0.0687,0.0624,0.0683,0.068,0.0677,0.0676,0.0652,0.0653,0,0,0,0,0,0,0.0749,0.0741,0.07,0.07,0.0745,0.0732,0.073,0.0717,0.0701,0.0702,0.073,0.0734,0.0696,0.0691,0.0686,0.0713,0.0679,0.0676,0.0674,0.065,0.0652,0.0654,0,0,0,0,0,0,0.075,0.0745,0.0701,0.0723,0.0719,0.0729,0.0713,0.0715,0.0721,0.0704,0.0705,0.0736,0.0697,0.0691,0.0688,0.0708,0.0674,0.0671,0.0649,0.0651,0.0653,0.0699,0,0,0,0,0,0,0.0752,0.0745,0.0733,0.0723,0.0718,0.0676,0.0711,0.0713,0.0719,0.0724,0.0709,0.0707,0.0699,0.0694,0.0685,0.0703,0.0668,0.0647,0.065,0.0652,0.0695,0.0702,0.0708,0,0,0,0,0,0.0753,0.072,0.0732,0.0727,0.0701,0.0675,0.0672,0.0686,0.0717,0.0703,0.0726,0.0709,0.0706,0.0691,0.0681,0.0698,0.0646,0.0649,0.0652,0.0693,0.0701,0.0708,0,0,0,0,0,0,0.0744,0.0721,0.0734,0.0698,0.0691,0.0683,0.0662,0.0688,0.0691,0.0698,0.0707,0.0705,0.0716,0.0698,0.0682,0.0705,0.0679,0.068,0.0714,0.0721,0.0727,0.0718,0.0665,0,0,0,0,0,0.0734,0.07,0.0695,0.0668,0.0656,0.0664,0.0657,0.0668,0.0673,0.0677,0.0696,0.0708,0.0714,0.0712,0.0705,0.0695,0.0695,0.0708,0.0714,0.0719,0.0708,0.0769,0.078,0.0664,0.0664,0.0664,0,0,0.0727,0.0708,0.0693,0.0664,0.0652,0.0634,0.0664,0.0641,0.0661,0.0667,0.0704,0.0719,0.0717,0.0729,0.0732,0.0718,0.0748,0.0724,0.0728,0.0713,0.0773,0.0785,0.0794,0.0667,0.0666,0.0666,0,0,0.0685,0.0671,0.0627,0.0615,0.0595,0.0602,0.0603,0.0613,0.0646,0.0665,0.0702,0.073,0.0733,0.0751,0.0755,0.0782,0.078,0.0797,0.0815,0.0875,0.0885,0.0893,0.0886,0.0893,0.0801,0.0801,0.0801,0,0.0691,0.063,0.0614,0.0575,0.0582,0.0594,0.0581,0.0595,0.0627,0.068,0.0681,0.0767,0.0739,0.0796,0.0801,0.0792,0.0818,0.0785,0.0883,0.0892,0.09,0.089,0.0898,0.0803,0.0803,0.0803,0.0802,0,0.061,0.0578,0.0547,0.0516,0.0524,0.0497,0.0533,0.057,0.0625,0.0676,0.0765,0.0767,0.0841,0.0829,0.0803,0.087,0.0864,0.0885,0.0862,0.0914,0.09,0.0908,0.0807,0.0806,0.0805,0.0805,0,0,0.0609,0.0512,0.0511,0.0509,0.0495,0.0507,0.0541,0.0604,0.0674,0.0726,0.0832,0.0838,0.0902,0.0909,0.0924,0.0933,0.0969,0.0927,0.0929,0.0913,0.1077,0.099,0.0989,0.1037,0.1039,0.1041,0.1035,0,0.0567,0.0488,0.047,0.0462,0.044,0.049,0.0538,0.0612,0.0689,0.079,0.0849,0.0927,0.0922,0.0965,0.0994,0.097,0.0997,0.0966,0.1032,0.1032,0.0946,0.0998,0.1048,0.104,0.1042,0.1043,0.1044,0,0.0507,0.0472,0.0429,0.0464,0.0468,0.0497,0.0627,0.0667,0.0795,0.0852,0.0974,0.104,0.1087,0.1067,0.1113,0.111,0.1102,0.107,0.1072,0.0977,0.096,0.0984,0.1057,0.1056,0.1055,0.1054,0.1054,0,0.0508,0.0472,0.045,0.0447,0.0468,0.0534,0.0594,0.0716,0.0787,0.0917,0.0985,0.11,0.1152,0.1183,0.1148,0.1153,0.1159,0.1171,0.1094,0.1086,0.1142,0.1133,0.1223,0.1223,0.1223,0.1223,0.1223,0,0.0455,0.0446,0.0463,0.0443,0.0512,0.0558,0.0664,0.0733,0.0854,0.094,0.1048,0.1125,0.119,0.1225,0.1185,0.1149,0.1224,0.109,0.1093,0.1157,0.115,0.1145,0.1137,0.1222,0.1222,0.1223,0.1223,0,0.0409,0.0385,0.0386,0.0446,0.0487,0.0554,0.0687,0.0758,0.0868,0.0984,0.103,0.1157,0.12,0.1234,0.1233,0.1187,0.1142,0.112,0.1141,0.1145,0.1015,0.1008,0.1039,0.1036,0.1034,0.1032,0.103,0,0.0346,0.0332,0.0399,0.0426,0.0452,0.0557,0.062,0.0747,0.0827,0.0991,0.104,0.115,0.1223,0.1162,0.117,0.1125,0.1115,0.1067,0.1072,0.1003,0.1003,0.1,0.0997,0.1026,0.1026,0.1025,0.1024,0,0.0275,0.0312,0.033,0.0383,0.0456,0.0512,0.0634,0.069,0.0836,0.095,0.1052,0.1091,0.1139,0.1135,0.1113,0.1073,0.1073,0.1042,0.1047,0.1052,0.0989,0.099,0.099,0.1016,0.1017,0.1018,0.1019,0,0.0247,0.0282,0.0322,0.0381,0.0431,0.0466,0.0529,0.0646,0.0741,0.0954,0.0969,0.1064,0.1153,0.1106,0.1067,0.1038,0.1028,0.0963,0.0973,0.0982,0.096,0.087,0.0865,0,0,0,0,0,0.0233,0.0275,0.0318,0.0361,0.0386,0.0419,0.0534,0.0601,0.0766,0.0829,0.0916,0.0966,0.0976,0.0995,0.0954,0.0992,0.099,0.093,0.0911,0.0971,0.098,0.0957,0,0,0,0,0,0,0.0224,0.0256,0.0318,0.0326,0.0334,0.0364,0.0427,0.0521,0.0583,0.075,0.0773,0.0879,0.0904,0.1002,0.093,0.0931,0.0888,0.0984,0.098,0.0966,0.0974,0.0982,0.0961,0,0,0,0,0]},{"header":{"parameterUnit":"m.s-1","parameterCategory":2,"la1":30.2991,"la2":30.254,"lo1":-89.0895,"lo2":-89.0444,"dy":0.0017,"dx":0.0017,"nx":28,"ny":28,"refTime":"2024-08-14T03:00:00:Z","depth":"4","parameterNumber":3,"parameterNumberName":"V-component_of_CURRENTS"},"data":[0,0,0,0,0,0,0,0,0,0,0,0,0,0,0,0,0,0,0,0,0,0,0,0,0,0,0,0,0,0,0,0,0,0,0,0,0,0,0,0,0,0,0,0,0,0,0,0,0,0,0,0,0,0,0,0,0,0,0.0038,0.0038,0,0.0047,0.0047,0.0047,0.0022,0.0021,0.002,0.002,0.0018,0.0018,0.0019,0,0,0,0,0,0,0,0,0,0,0,0,0,0.001,0.0011,0.0038,0.0038,0.0038,0.0047,0.0047,0.0047,0.0022,0.0021,0.002,0.0019,0.0018,0.0018,0.0019,0,0,0,0,0,0,0,0,0,0,0,0,0,0.002,0.0011,0.0038,0.0028,0.0027,0.0047,0.0047,0.0047,0.0022,0.0021,0.002,0.0019,0.0017,0.0018,0.0019,0.0046,0,0,0.0022,0.0022,0,0,0,0,0,0,0,0,0.002,0.0021,0.0029,0.0028,0.0027,0.0033,0.0036,0.0046,0.0022,0.0023,0.002,0.0018,0.0023,0.0024,0.0026,0.0045,0.0045,0.0022,0.0023,0.0023,0.0023,0,0,0,0,0,0,0,0.0019,0.0021,0.004,0.0029,0.0028,0.0026,0.0026,0.0038,0.0028,0.0023,0.0021,0.0024,0.0023,0.0026,0.0026,0.0045,0.0022,0.0023,0.0023,0.0024,0.0066,0.0067,0,0,0,0,0,0,0.0021,0.002,0.004,0.0041,0.0022,0.0028,0.0028,0.0031,0.0028,0.0027,0.0025,0.0023,0.0025,0.0025,0.0026,0.0058,0.0023,0.0024,0.0024,0.0066,0.0066,0.0067,0,0,0,0,0,0,0.002,0.0022,0.004,0.0031,0.0033,0.0029,0.0034,0.0032,0.0037,0.003,0.0028,0.0031,0.0024,0.0025,0.0037,0.0057,0.0024,0.0025,0.0065,0.0066,0.0067,0.0121,0,0,0,0,0,0,0.0019,0.0022,0.0029,0.0031,0.0034,0.0063,0.0035,0.0033,0.004,0.0038,0.0035,0.0033,0.0023,0.0035,0.0038,0.0058,0.0026,0.0064,0.0065,0.0067,0.0119,0.0124,0.0128,0,0,0,0,0,0.0018,0.0034,0.003,0.0032,0.0043,0.0065,0.0067,0.0059,0.0042,0.0056,0.0044,0.0033,0.0043,0.0037,0.0039,0.0061,0.0064,0.0065,0.0066,0.0116,0.0123,0.0128,0,0,0,0,0,0,0.0024,0.0033,0.0028,0.0045,0.0059,0.0061,0.0077,0.0066,0.0069,0.0068,0.0047,0.0045,0.0062,0.0054,0.0047,0.0074,0.005,0.0052,0.0088,0.0094,0.0098,0.0084,0.0026,0,0,0,0,0,0.0031,0.0045,0.0053,0.0068,0.008,0.0079,0.0087,0.0086,0.0086,0.0086,0.0077,0.007,0.0071,0.0075,0.0077,0.0099,0.0049,0.0111,0.0116,0.012,0.0109,0.0028,0.0024,0.0072,0.0071,0.0071,0,0,0.0034,0.0044,0.0049,0.0071,0.0082,0.0111,0.0082,0.0107,0.0121,0.0088,0.0103,0.0091,0.008,0.0099,0.0106,0.0095,0.0087,0.0122,0.0126,0.0112,0.0029,0.0024,0.002,0.0072,0.0072,0.0072,0,0,0.0062,0.0065,0.0093,0.0112,0.0139,0.0141,0.015,0.0159,0.0155,0.0174,0.0145,0.0134,0.0153,0.0132,0.0128,0.0159,0.0114,0.0173,0.019,0.0113,0.0108,0.0102,0.0059,0.0049,0.0177,0.0177,0.0177,0,0.0066,0.0102,0.0105,0.0145,0.0163,0.0157,0.0194,0.0197,0.0202,0.0192,0.0189,0.0168,0.0162,0.0153,0.0166,0.0169,0.0127,0.0172,0.0117,0.0111,0.0104,0.0061,0.0049,0.018,0.018,0.0179,0.0179,0,0.0118,0.0152,0.0175,0.0217,0.0237,0.0272,0.0278,0.0282,0.0274,0.0263,0.0252,0.023,0.0212,0.0213,0.0205,0.0167,0.0155,0.013,0.0099,0.0102,0.0057,0.0044,0.0184,0.0183,0.0182,0.0181,0,0,0.0109,0.0193,0.0202,0.0236,0.0279,0.03,0.0321,0.0329,0.0322,0.0317,0.0295,0.0291,0.0263,0.0254,0.0233,0.0167,0.0102,0.0139,0.0134,0.0092,-0.0049,0.0007,-0.0002,0.0063,0.0061,0.0059,-0.0053,0,0.0149,0.0238,0.0261,0.033,0.0377,0.0375,0.0386,0.0387,0.0376,0.0352,0.0308,0.0295,0.0287,0.0278,0.0215,0.0111,0.0065,0.0135,-0.0043,-0.0048,-0.0003,-0.0016,0.0051,-0.0063,-0.0066,-0.0068,-0.007,0,0.0192,0.0247,0.0334,0.0386,0.0401,0.0435,0.0438,0.0449,0.0411,0.0391,0.0361,0.0332,0.0258,0.0246,0.0079,0.0124,0.0056,-0.0024,-0.0031,-0.0013,-0.0016,-0.0074,-0.0094,-0.0093,-0.0091,-0.0089,-0.0088,0,0.0201,0.0289,0.0359,0.0385,0.0444,0.0464,0.0479,0.0465,0.0465,0.0418,0.0403,0.0316,0.0275,0.0147,0.0037,0.0043,-0.016,-0.0177,-0.0183,-0.0179,-0.0222,-0.0216,-0.0285,-0.0285,-0.0284,-0.0284,-0.0284,0,0.0238,0.029,0.0374,0.0418,0.0463,0.0495,0.0521,0.0507,0.0493,0.0483,0.0436,0.0399,0.0244,0.0138,0.002,-0.0114,-0.0167,-0.0189,-0.0214,-0.019,-0.0179,-0.023,-0.0223,-0.0288,-0.0287,-0.0286,-0.0286,0,0.0251,0.0312,0.0385,0.0459,0.0483,0.0515,0.0565,0.0574,0.0554,0.0538,0.0529,0.0438,0.0294,0.0163,-0.0054,-0.0115,-0.0269,-0.0286,-0.0228,-0.0247,-0.0233,-0.0221,-0.0338,-0.0337,-0.0336,-0.0336,-0.0335,0,0.0271,0.0318,0.041,0.0445,0.049,0.0546,0.0579,0.0598,0.0612,0.0558,0.0545,0.0441,0.0369,0.0111,-0.0042,-0.0245,-0.0249,-0.0312,-0.0292,-0.023,-0.0244,-0.0233,-0.0222,-0.0334,-0.0334,-0.0334,-0.0333,0,0.0286,0.0318,0.0369,0.0447,0.0509,0.0565,0.0623,0.0638,0.0643,0.0636,0.0561,0.0455,0.0311,0.0121,-0.0,-0.0154,-0.0285,-0.0305,-0.0308,-0.029,-0.0227,-0.0238,-0.0229,-0.0331,-0.0331,-0.0331,-0.0332,0,0.0269,0.0301,0.0365,0.043,0.0499,0.0562,0.0598,0.0627,0.0645,0.0617,0.0581,0.0433,0.0352,0.0169,0.0023,-0.0091,-0.0124,-0.0161,-0.0172,-0.0176,-0.0084,0.0022,-0.0036,0,0,0,0,0,0.0259,0.0298,0.0345,0.0414,0.0478,0.0531,0.061,0.0641,0.0668,0.0633,0.0617,0.049,0.0296,0.0193,0.0088,0.002,-0.0157,-0.0107,-0.0207,-0.0317,-0.032,-0.0232,0,0,0,0,0,0,0.0251,0.0296,0.0334,0.0388,0.0432,0.0511,0.057,0.0592,0.0582,0.0587,0.0486,0.0463,0.027,0.0349,0.0079,0.0043,-0.0032,-0.0191,-0.0193,-0.0315,-0.0318,-0.032,-0.0231,0,0,0,0,0]}]]